Time,TemperatureF,DewpointF,PressureIn,WindDirection,WindDirectionDegrees,WindSpeedMPH,WindSpeedGustMPH,Humidity,HourlyPrecipIn,Conditions,Clouds,dailyrainin,SoftwareType,DateUTC
2013-08-05 00:02:00,63.0,58.0,30.11,SSE,148,0.0,1.0,83,0.00,,,0.00,,2013-08-05 04:02:00,
2013-08-05 00:12:00,63.0,58.0,30.12,SSE,148,0.0,0.0,84,0.00,,,0.00,,2013-08-05 04:12:00,
2013-08-05 00:22:00,63.0,58.0,30.12,SSE,148,0.0,0.0,84,0.00,,,0.00,,2013-08-05 04:22:00,
2013-08-05 00:32:00,63.0,58.0,30.11,SSE,148,0.0,1.0,85,0.00,,,0.00,,2013-08-05 04:32:00,
2013-08-05 00:43:00,63.0,58.0,30.12,SSE,148,0.0,0.0,85,0.00,,,0.00,,2013-08-05 04:43:00,
2013-08-05 00:52:00,62.0,57.0,30.12,SSE,148,0.0,1.0,85,0.00,,,0.00,,2013-08-05 04:52:00,
2013-08-05 01:02:00,62.0,57.0,30.11,SSE,148,0.0,1.0,84,0.00,,,0.00,,2013-08-05 05:02:00,
2013-08-05 01:12:00,62.0,57.0,30.12,SSE,148,0.0,0.0,84,0.00,,,0.00,,2013-08-05 05:12:00,
2013-08-05 01:22:00,62.0,57.0,30.11,SSE,148,0.0,2.0,85,0.00,,,0.00,,2013-08-05 05:22:00,
2013-08-05 01:32:00,62.0,57.0,30.11,SSE,148,0.0,0.0,84,0.00,,,0.00,,2013-08-05 05:32:00,
2013-08-05 01:43:00,62.0,57.0,30.12,SSE,148,0.0,2.0,85,0.00,,,0.00,,2013-08-05 05:43:00,
2013-08-05 01:53:00,62.0,57.0,30.12,SSE,148,0.0,1.0,84,0.00,,,0.00,,2013-08-05 05:53:00,
2013-08-05 02:02:00,62.0,57.0,30.11,SSE,148,0.0,1.0,84,0.00,,,0.00,,2013-08-05 06:02:00,
2013-08-05 02:12:00,62.0,57.0,30.11,SSE,148,0.0,0.0,84,0.00,,,0.00,,2013-08-05 06:12:00,
2013-08-05 02:22:00,62.0,57.0,30.11,SSE,148,0.0,1.0,84,0.00,,,0.00,,2013-08-05 06:22:00,
2013-08-05 02:32:00,62.0,57.0,30.12,SSE,148,0.0,1.0,85,0.00,,,0.00,,2013-08-05 06:32:00,
2013-08-05 02:43:00,62.0,58.0,30.11,SSE,148,0.0,0.0,86,0.00,,,0.00,,2013-08-05 06:43:00,
2013-08-05 02:52:00,62.0,58.0,30.11,SSE,148,0.0,0.0,86,0.00,,,0.00,,2013-08-05 06:52:00,
2013-08-05 03:02:00,62.0,58.0,30.11,SSE,148,0.0,0.0,86,0.00,,,0.00,,2013-08-05 07:02:00,
2013-08-05 03:12:00,62.0,57.0,30.11,SSE,148,0.0,1.0,85,0.00,,,0.00,,2013-08-05 07:12:00,
2013-08-05 03:22:00,62.0,58.0,30.10,SSE,148,0.0,0.0,86,0.00,,,0.00,,2013-08-05 07:22:00,
2013-08-05 03:32:00,61.0,56.0,30.10,SSE,148,0.0,0.0,85,0.00,,,0.00,,2013-08-05 07:32:00,
2013-08-05 03:43:00,61.0,57.0,30.10,SSE,148,0.0,0.0,86,0.00,,,0.00,,2013-08-05 07:43:00,
2013-08-05 03:53:00,61.0,57.0,30.10,SSE,148,0.0,0.0,86,0.00,,,0.00,,2013-08-05 07:53:00,
2013-08-05 04:02:00,61.0,57.0,30.09,SSE,148,0.0,0.0,86,0.00,,,0.00,,2013-08-05 08:02:00,
2013-08-05 04:12:00,61.0,57.0,30.09,SSE,148,0.0,0.0,86,0.00,,,0.00,,2013-08-05 08:12:00,
2013-08-05 04:22:00,61.0,57.0,30.10,SSE,148,0.0,0.0,86,0.00,,,0.00,,2013-08-05 08:22:00,
2013-08-05 04:34:00,61.0,57.0,30.09,SSE,148,0.0,0.0,87,0.00,,,0.00,,2013-08-05 08:34:00,
2013-08-05 04:48:00,60.0,56.0,30.09,SSE,148,0.0,0.0,87,0.00,,,0.00,,2013-08-05 08:48:00,
2013-08-05 05:27:00,60.0,56.0,30.09,SSE,148,0.0,0.0,88,0.00,,,0.00,,2013-08-05 09:27:00,
2013-08-05 05:40:00,60.0,56.0,30.09,SSE,148,0.0,0.0,88,0.00,,,0.00,,2013-08-05 09:40:00,
2013-08-05 05:48:00,60.0,56.0,30.09,SSE,148,0.0,0.0,88,0.00,,,0.00,,2013-08-05 09:48:00,
2013-08-05 05:53:00,60.0,57.0,30.09,SSE,148,0.0,1.0,89,0.00,,,0.00,,2013-08-05 09:53:00,
2013-08-05 06:10:00,60.0,57.0,30.09,SSE,148,0.0,0.0,89,0.00,,,0.00,,2013-08-05 10:10:00,
2013-08-05 06:16:00,60.0,57.0,30.10,SSE,148,0.0,0.0,89,0.00,,,0.00,,2013-08-05 10:16:00,
2013-08-05 06:28:00,60.0,57.0,30.10,SSE,148,0.0,0.0,89,0.00,,,0.00,,2013-08-05 10:28:00,
2013-08-05 06:34:00,60.0,57.0,30.10,SSE,148,0.0,0.0,90,0.00,,,0.00,,2013-08-05 10:34:00,
2013-08-05 06:48:00,60.0,57.0,30.11,SSE,148,0.0,1.0,89,0.00,,,0.00,,2013-08-05 10:48:00,
2013-08-05 06:53:00,60.0,57.0,30.11,SSE,148,0.0,1.0,90,0.00,,,0.00,,2013-08-05 10:53:00,
2013-08-05 07:09:00,60.0,57.0,30.11,SSE,148,0.0,1.0,90,0.00,,,0.00,,2013-08-05 11:09:00,
2013-08-05 07:38:00,60.0,57.0,30.11,SSE,148,0.0,0.0,90,0.00,,,0.00,,2013-08-05 11:38:00,
2013-08-05 07:49:00,60.0,57.0,30.11,SSE,148,0.0,0.0,90,0.00,,,0.00,,2013-08-05 11:49:00,
2013-08-05 07:57:00,60.0,57.0,30.11,SSE,148,0.0,0.0,90,0.00,,,0.00,,2013-08-05 11:57:00,
2013-08-05 08:07:00,60.0,57.0,30.12,SSE,148,0.0,0.0,90,0.00,,,0.00,,2013-08-05 12:07:00,
2013-08-05 08:17:00,61.0,58.0,30.12,SSE,148,0.0,3.0,91,0.00,,,0.00,,2013-08-05 12:17:00,
2013-08-05 08:27:00,61.0,58.0,30.12,SSE,148,0.0,1.0,90,0.00,,,0.00,,2013-08-05 12:27:00,
2013-08-05 08:33:00,61.0,58.0,30.12,SSE,148,0.0,0.0,91,0.00,,,0.00,,2013-08-05 12:33:00,
2013-08-05 09:02:00,62.0,59.0,30.12,SSE,148,0.0,0.0,91,0.00,,,0.00,,2013-08-05 13:02:00,
2013-08-05 09:28:00,62.0,59.0,30.12,SSE,148,0.0,0.0,89,0.00,,,0.00,,2013-08-05 13:28:00,
2013-08-05 09:38:00,63.0,59.0,30.13,SSE,148,0.0,0.0,88,0.00,,,0.00,,2013-08-05 13:38:00,
2013-08-05 09:53:00,64.0,60.0,30.12,SSE,148,0.0,1.0,87,0.00,,,0.00,,2013-08-05 13:53:00,
2013-08-05 10:06:00,64.0,59.0,30.12,SSE,148,0.0,1.0,85,0.00,,,0.00,,2013-08-05 14:06:00,
2013-08-05 10:17:00,65.0,60.0,30.12,SE,132,0.0,3.0,83,0.00,,,0.00,,2013-08-05 14:17:00,
2013-08-05 10:28:00,65.0,60.0,30.12,SE,131,0.0,3.0,83,0.00,,,0.00,,2013-08-05 14:28:00,
2013-08-05 10:39:00,66.0,60.0,30.12,East,79,0.0,1.0,82,0.00,,,0.00,,2013-08-05 14:39:00,
2013-08-05 10:48:00,66.0,60.0,30.12,ENE,78,0.0,1.0,80,0.00,,,0.00,,2013-08-05 14:48:00,
2013-08-05 10:53:00,67.0,60.0,30.12,East,79,0.0,2.0,78,0.00,,,0.00,,2013-08-05 14:53:00,
2013-08-05 11:07:00,67.0,61.0,30.12,East,79,0.0,2.0,81,0.00,,,0.00,,2013-08-05 15:07:00,
2013-08-05 11:25:00,67.0,61.0,30.12,East,79,0.0,3.0,82,0.00,,,0.00,,2013-08-05 15:25:00,
2013-08-05 11:57:00,69.0,62.0,30.12,WSW,249,0.0,1.0,78,0.00,,,0.00,,2013-08-05 15:57:00,
2013-08-05 12:10:00,69.0,63.0,30.11,WSW,253,0.0,1.0,80,0.00,,,0.00,,2013-08-05 16:10:00,
2013-08-05 12:18:00,69.0,63.0,30.11,WSW,253,0.0,1.0,80,0.00,,,0.00,,2013-08-05 16:18:00,
2013-08-05 12:33:00,71.0,63.0,30.11,West,266,1.0,5.0,75,0.00,,,0.00,,2013-08-05 16:33:00,
2013-08-05 12:45:00,72.0,63.0,30.11,West,265,0.0,1.0,74,0.00,,,0.00,,2013-08-05 16:45:00,
2013-08-05 12:57:00,72.0,63.0,30.11,West,265,0.0,1.0,74,0.00,,,0.00,,2013-08-05 16:57:00,
2013-08-05 13:07:00,72.0,63.0,30.11,NNW,342,0.0,4.0,73,0.00,,,0.00,,2013-08-05 17:07:00,
2013-08-05 13:37:00,73.0,63.0,30.10,NE,56,0.0,3.0,72,0.00,,,0.00,,2013-08-05 17:37:00,
2013-08-05 13:57:00,74.0,65.0,30.09,West,263,1.0,4.0,74,0.00,,,0.00,,2013-08-05 17:57:00,
2013-08-05 14:08:00,74.0,65.0,30.09,North,8,0.0,4.0,73,0.00,,,0.00,,2013-08-05 18:08:00,
2013-08-05 14:37:00,74.0,65.0,30.09,SSW,197,0.0,3.0,73,0.00,,,0.00,,2013-08-05 18:37:00,
2013-08-05 14:53:00,75.0,65.0,30.09,NE,47,2.0,6.0,71,0.00,,,0.00,,2013-08-05 18:53:00,
2013-08-05 15:05:00,76.0,65.0,30.09,NE,45,1.0,5.0,69,0.00,,,0.00,,2013-08-05 19:05:00,
2013-08-05 15:14:00,76.0,65.0,30.08,East,83,0.0,2.0,69,0.00,,,0.00,,2013-08-05 19:14:00,
2013-08-05 15:38:00,76.0,65.0,30.08,East,80,0.0,3.0,70,0.00,,,0.00,,2013-08-05 19:38:00,
2013-08-05 15:50:00,77.0,66.0,30.08,NE,48,1.0,5.0,69,0.00,,,0.00,,2013-08-05 19:50:00,
2013-08-05 16:15:00,78.0,67.0,30.08,West,277,1.0,2.0,69,0.00,,,0.00,,2013-08-05 20:15:00,
2013-08-05 16:28:00,76.0,65.0,30.07,West,269,0.0,3.0,69,0.00,,,0.00,,2013-08-05 20:28:00,
2013-08-05 16:48:00,75.0,66.0,30.07,West,269,0.0,1.0,73,0.00,,,0.00,,2013-08-05 20:48:00,
2013-08-05 16:57:00,75.0,66.0,30.07,West,269,0.0,1.0,73,0.00,,,0.00,,2013-08-05 20:57:00,
2013-08-05 17:18:00,77.0,66.0,30.06,West,261,0.0,2.0,70,0.00,,,0.00,,2013-08-05 21:18:00,
2013-08-05 17:26:00,77.0,66.0,30.06,West,261,0.0,2.0,70,0.00,,,0.00,,2013-08-05 21:26:00,
2013-08-05 17:34:00,78.0,67.0,30.06,West,261,0.0,4.0,68,0.00,,,0.00,,2013-08-05 21:34:00,
2013-08-05 17:47:00,79.0,67.0,30.06,WNW,291,0.0,4.0,66,0.00,,,0.00,,2013-08-05 21:47:00,
2013-08-05 17:53:00,79.0,66.0,30.05,North,350,0.0,2.0,64,0.00,,,0.00,,2013-08-05 21:53:00,
2013-08-05 18:05:00,78.0,67.0,30.06,North,350,0.0,2.0,69,0.00,,,0.00,,2013-08-05 22:05:00,
2013-08-05 18:15:00,77.0,67.0,30.05,North,351,0.0,2.0,71,0.00,,,0.00,,2013-08-05 22:15:00,
2013-08-05 18:37:00,75.0,66.0,30.05,NE,35,0.0,3.0,74,0.00,,,0.00,,2013-08-05 22:37:00,
2013-08-05 18:44:00,76.0,67.0,30.04,North,0,0.0,2.0,74,0.00,,,0.00,,2013-08-05 22:44:00,
2013-08-05 18:53:00,76.0,67.0,30.04,NNE,15,0.0,2.0,73,0.00,,,0.00,,2013-08-05 22:53:00,
2013-08-05 19:07:00,76.0,67.0,30.04,North,6,1.0,4.0,73,0.00,,,0.00,,2013-08-05 23:07:00,
2013-08-05 19:16:00,75.0,67.0,30.04,North,6,0.0,0.0,75,0.00,,,0.00,,2013-08-05 23:16:00,
2013-08-05 19:27:00,75.0,67.0,30.04,North,6,0.0,1.0,75,0.00,,,0.00,,2013-08-05 23:27:00,
2013-08-05 19:33:00,75.0,67.0,30.03,NNE,28,0.0,2.0,76,0.00,,,0.00,,2013-08-05 23:33:00,
2013-08-05 19:46:00,74.0,66.0,30.04,ENE,74,0.0,3.0,76,0.00,,,0.00,,2013-08-05 23:46:00,
2013-08-05 19:57:00,74.0,66.0,30.03,ENE,72,0.0,4.0,77,0.00,,,0.00,,2013-08-05 23:57:00,
2013-08-05 20:02:00,74.0,67.0,30.03,ENE,72,0.0,3.0,78,0.00,,,0.00,,2013-08-06 00:02:00,
2013-08-05 20:15:00,73.0,67.0,30.04,ENE,72,0.0,2.0,81,0.00,,,0.00,,2013-08-06 00:15:00,
2013-08-05 20:24:00,72.0,66.0,30.04,ENE,71,0.0,1.0,82,0.00,,,0.00,,2013-08-06 00:24:00,
2013-08-05 20:37:00,72.0,67.0,30.05,ENE,71,0.0,3.0,83,0.00,,,0.00,,2013-08-06 00:37:00,
2013-08-05 20:45:00,72.0,68.0,30.05,ENE,71,0.0,0.0,86,0.01,,,0.01,,2013-08-06 00:45:00,
2013-08-05 20:57:00,71.0,67.0,30.06,ENE,71,0.0,2.0,87,0.02,,,0.02,,2013-08-06 00:57:00,
2013-08-05 21:09:00,70.0,65.0,30.06,North,6,0.0,6.0,85,0.08,,,0.08,,2013-08-06 01:09:00,
2013-08-05 21:28:00,69.0,65.0,30.06,North,6,0.0,0.0,88,0.08,,,0.08,,2013-08-06 01:28:00,
2013-08-05 21:40:00,68.0,65.0,30.07,North,6,0.0,0.0,90,0.08,,,0.08,,2013-08-06 01:40:00,
2013-08-05 21:49:00,68.0,65.0,30.07,North,6,0.0,0.0,89,0.07,,,0.08,,2013-08-06 01:49:00,
2013-08-05 21:57:00,67.0,64.0,30.07,North,6,0.0,0.0,90,0.06,,,0.08,,2013-08-06 01:57:00,
2013-08-05 22:09:00,67.0,64.0,30.06,North,6,0.0,0.0,91,0.00,,,0.08,,2013-08-06 02:09:00,
2013-08-05 22:15:00,67.0,64.0,30.06,North,6,0.0,1.0,91,0.00,,,0.08,,2013-08-06 02:15:00,
2013-08-05 22:27:00,67.0,64.0,30.06,North,6,0.0,1.0,91,0.00,,,0.08,,2013-08-06 02:27:00,
2013-08-05 22:32:00,67.0,65.0,30.06,North,6,0.0,0.0,92,0.00,,,0.08,,2013-08-06 02:32:00,
2013-08-05 22:52:00,66.0,64.0,30.06,North,6,0.0,0.0,93,0.00,,,0.08,,2013-08-06 02:52:00,
2013-08-05 23:02:00,66.0,64.0,30.06,North,6,0.0,0.0,93,0.00,,,0.08,,2013-08-06 03:02:00,
2013-08-05 23:16:00,66.0,64.0,30.07,North,6,0.0,0.0,93,0.00,,,0.08,,2013-08-06 03:16:00,
2013-08-05 23:26:00,66.0,64.0,30.07,North,6,0.0,1.0,93,0.00,,,0.08,,2013-08-06 03:26:00,
2013-08-05 23:35:00,66.0,64.0,30.08,North,6,0.0,0.0,94,0.00,,,0.08,,2013-08-06 03:35:00,
2013-08-05 23:52:00,66.0,64.0,30.07,NE,55,1.0,3.0,93,0.00,,,0.08,,2013-08-06 03:52:00,